Weather History for Lawton, OK

Change the Weather History Date:

Saturday, January 5, 2013

  Actual Average Record
Temperature  
Mean Temperature 41 °F -  
Max Temperature 52 °F 49 °F 78 °F (2008)
Min Temperature 30 °F 26 °F 4 °F (1959)
Degree Days  
Heating Degree Days 24    
Moisture  
Dew Point 29 °F    
Average Humidity 67    
Maximum Humidity 89    
Minimum Humidity 38    
Precipitation  
Precipitation 0.00 in - - ()
Sea Level Pressure  
Sea Level Pressure 30.26 in    
Wind  
Wind Speed 8 mph (SW)    
Max Wind Speed 13 mph    
Max Gust Speed 23 mph    
Visibility 10 miles    
Events      
Averages and records for this station are not official NWS values.
T = Trace of Precipitation, MM = Missing Value Source: NWS Daily Summary

Daily Weather History Graph

Daily Weather History Graph

Search for Another Location

Airport:

Trip Planner

Search our weather history database for the weather conditions in past years. The results will help you decide how hot, cold, wet, or windy it might be!

Date:

Astronomy

Jan. 05, 2013 Rise Set
Actual Time 7:41 AM CST 5:37 PM CST
Civil Twilight 7:13 AM CST 6:05 PM CST
Nautical Twilight 6:42 AM CST 6:36 PM CST
Astronomical Twilight 6:11 AM CST 7:07 PM CST
Moon 12:57 AM CST (1/5) 12:20 PM CST (1/5)
Length of Visible Light 10h 52m
Length of Day
9h 56m
Last Quarter, 44% of the Moon is Illuminated
Jan 5
Last Quarter
Jan 11
New
Jan 18
First Quarter
Jan 26
Full
Feb 3
Last Quarter

Hourly Weather History & Observations

Time (CST) Temp. Windchill Dew Point Humidity Pressure Visibility Wind Dir Wind Speed Gust Speed Precip Events Conditions
12:53 AM 39.9 °F 33.9 °F 32.0 °F 73% 30.31 in 10.0 mi South 9.2 mph - N/A   Overcast
1:53 AM 39.0 °F 34.0 °F 33.1 °F 79% 30.30 in 10.0 mi South 6.9 mph - N/A   Overcast
2:53 AM 39.0 °F 33.4 °F 33.1 °F 79% 30.29 in 10.0 mi South 8.1 mph - N/A   Overcast
3:53 AM 37.0 °F 30.4 °F 32.0 °F 82% 30.27 in 10.0 mi South 9.2 mph - N/A   Scattered Clouds
4:53 AM 36.0 °F 29.0 °F 32.0 °F 86% 30.26 in 10.0 mi South 9.2 mph - N/A   Overcast
5:53 AM 36.0 °F 29.0 °F 33.1 °F 89% 30.26 in 10.0 mi South 9.2 mph - N/A   Overcast
6:53 AM 37.0 °F 29.3 °F 32.0 °F 82% 30.27 in 10.0 mi South 11.5 mph - N/A   Overcast
7:51 AM 37.4 °F 32.1 °F 33.8 °F 87% 30.25 in 10.0 mi South 6.9 mph - N/A   Overcast
7:53 AM 37.0 °F 31.0 °F 33.1 °F 86% 30.27 in 10.0 mi South 8.1 mph - N/A   Overcast
8:53 AM 37.0 °F 29.8 °F 33.1 °F 86% 30.28 in 10.0 mi South 10.4 mph - N/A   Scattered Clouds
9:53 AM 41.0 °F 33.9 °F 33.1 °F 73% 30.28 in 10.0 mi SSW 12.7 mph 23.0 mph N/A   Clear
11:53 AM 46.0 °F 40.2 °F 30.9 °F 56% 30.23 in 10.0 mi SW 12.7 mph 19.6 mph N/A   Clear
12:53 PM 48.0 °F - 30.0 °F 50% 30.21 in 10.0 mi West 9.2 mph 20.7 mph N/A   Clear
1:53 PM 50.0 °F - 28.9 °F 44% 30.18 in 10.0 mi WSW 9.2 mph 17.3 mph N/A   Clear
2:53 PM 50.0 °F - 28.0 °F 43% 30.18 in 10.0 mi SW 6.9 mph - N/A   Clear
3:53 PM 52.0 °F - 27.0 °F 38% 30.19 in 10.0 mi WSW 8.1 mph - N/A   Clear
4:53 PM 51.1 °F - 26.1 °F 38% 30.21 in 10.0 mi West 6.9 mph - N/A   Clear
5:53 PM 44.1 °F - 27.0 °F 51% 30.23 in 10.0 mi Calm Calm - N/A   Clear
6:53 PM 36.0 °F 33.3 °F 26.1 °F 67% 30.26 in 10.0 mi WNW 3.5 mph - N/A   Clear
7:53 PM 32.0 °F - 25.0 °F 75% 30.28 in 10.0 mi Calm Calm - N/A   Clear
8:53 PM 30.0 °F 26.5 °F 24.1 °F 79% 30.30 in 10.0 mi NNW 3.5 mph - N/A   Clear
9:53 PM 37.9 °F 32.1 °F 21.9 °F 53% 30.32 in 10.0 mi NW 8.1 mph - N/A   Clear
10:53 PM 35.1 °F 32.2 °F 23.0 °F 61% 30.34 in 10.0 mi NNW 3.5 mph - N/A   Clear
11:53 PM 36.0 °F 31.1 °F 23.0 °F 59% 30.35 in 10.0 mi NNW 5.8 mph - N/A   Clear